Location: Bednik
(45.3500°N, 16.3833°E)
Time: 06:29:26
(UTC+00:00)

USA 238 - Pass Details

Date: 08 August 2020
Orbit: 1006 x 1206 km, 63.4° (Epoch: 19 September)

Event Time Altitude Azimuth Distance (km) Brightness Sun altitude
Rises 20:29:30 0° 208° (SSW) 3,729 6.3 -20.0°
Reaches altitude 10° 20:32:03 10° 207° (SSW) 2,794 5.6 -20.3°
Maximum altitude 20:38:35 73° 124° (ESE) 1,087 3.5 -20.9°
Drops below altitude 10° 20:45:26 10° 41° (NE) 2,919 6.1 -21.7°
Sets 20:48:09 0° 40° (NE) 3,908 6.9 -21.9°
